Wind_Speed
28 30 34 36 37 39 43 45 46 46 49 51 53 53 53 54 55 54 54 54 53 51 49 48 48 47 46 44 42 41 39 39 38 37 36 35 33 32 32 31 30 28 27 27
25 26 29 34 36 39 42 43 43 44 47 50 52 53 53 55 56 55 54 54 53 52 52 50 48 48 47 45 43 42 40 39 38 37 36 35 34 33 32 32 31 29 28 28
22 23 27 31 35 38 40 41 40 42 45 48 50 53 54 54 56 56 55 54 54 53 52 51 49 49 48 46 44 42 41 40 39 38 37 36 35 34 33 32 31 30 29 29
20 21 24 28 31 35 35 37 39 41 44 47 49 51 53 53 55 56 55 54 53 53 53 52 50 49 48 46 45 43 41 40 40 39 38 36 35 34 33 32 31 31 30 30
19 21 23 25 27 31 33 33 37 39 41 44 46 50 50 51 53 55 54 53 53 52 52 52 51 49 48 47 46 44 42 41 41 40 39 37 35 35 34 33 32 31 31 30
19 20 22 23 25 29 31 32 34 37 40 44 43 46 49 49 50 51 52 52 52 52 51 51 51 50 49 49 47 45 43 42 41 40 39 37 36 35 35 34 33 32 31 31
18 19 22 23 25 27 29 31 33 35 39 41 40 44 45 43 44 47 51 52 52 52 52 51 51 50 50 49 48 46 44 42 41 40 39 38 37 36 35 34 34 33 32 32
17 17 19 22 23 26 30 31 32 33 36 37 38 41 39 40 42 44 48 51 52 53 52 51 51 50 49 49 48 46 44 43 41 40 39 38 37 36 35 35 34 33 33 32
17 16 18 20 22 24 27 31 31 33 33 34 36 36 35 38 40 42 45 50 51 52 52 51 50 50 49 48 47 46 44 43 42 40 39 38 37 36 35 35 34 34 33 33
18 18 19 20 21 23 25 27 30 32 32 33 34 35 31 32 37 40 43 47 48 50 50 50 50 50 49 48 47 46 45 44 42 41 40 39 37 36 36 35 35 34 33 33
19 19 18 21 22 23 24 27 30 31 33 34 34 34 31 29 32 37 40 44 47 49 49 49 50 50 49 49 48 46 46 44 43 42 41 39 38 37 37 36 34 33 33 34
19 20 19 21 23 24 25 27 30 32 34 35 35 33 32 30 31 33 38 42 44 47 49 48 48 49 49 48 48 47 45 44 43 42 41 40 39 38 37 36 35 34 34 34
20 21 21 21 23 25 26 28 30 33 35 36 35 32 30 31 31 31 35 40 43 45 46 48 48 49 49 49 47 46 45 44 43 43 42 41 40 39 37 36 36 36 35 35
22 22 22 22 22 26 29 30 31 33 36 36 35 31 30 31 31 31 33 37 41 43 44 45 47 48 49 49 48 47 46 45 44 44 43 42 40 39 38 37 37 36 35 35
22 22 23 22 22 24 28 31 32 34 35 35 33 32 31 31 31 32 32 35 39 41 43 44 45 46 47 49 49 48 47 47 46 45 44 43 41 40 40 39 38 37 35 35
22 22 22 23 23 24 25 28 31 34 34 33 33 32 31 32 32 32 34 35 38 40 41 43 44 44 44 46 48 47 46 45 46 46 44 43 42 41 40 39 38 38 37 36
23 23 23 23 24 25 24 25 28 33 34 34 34 32 34 34 33 34 34 36 38 40 41 42 44 45 44 45 46 46 46 45 45 44 44 44 42 41 40 39 39 39 38 37
22 22 23 23 24 25 23 24 26 31 34 35 35 34 35 34 35 36 36 37 39 40 41 42 44 45 46 46 46 46 46 45 45 44 43 43 42 41 40 40 40 39 38 37
23 22 23 23 24 24 24 25 26 29 32 35 36 35 36 36 37 38 37 38 39 40 41 42 44 45 46 47 47 47 46 46 45 44 44 43 42 41 40 39 38 38 38 37
24 24 24 24 24 23 21 24 26 28 31 33 36 36 37 37 38 39 39 39 39 40 42 43 45 45 46 46 47 47 47 46 45 44 43 43 42 41 39 38 37 36 36 36
24 25 25 26 25 23 21 23 26 28 29 31 33 36 38 38 39 39 40 40 40 40 41 43 45 46 46 46 47 49 48 47 45 44 43 42 41 40 38 37 37 36 35 33
24 24 25 26 27 24 21 24 27 27 29 31 32 35 37 38 39 39 41 42 41 41 41 42 44 45 46 46 47 47 48 47 46 44 42 41 40 39 38 37 37 35 33 31
25 25 26 26 25 24 24 26 27 29 29 31 32 34 36 36 37 39 41 42 42 42 43 42 43 45 45 45 46 46 45 45 44 43 41 40 39 38 37 36 34 32 31 30
25 27 28 28 25 25 26 27 28 30 31 32 32 33 36 36 37 38 40 42 43 44 44 43 43 45 45 45 45 46 45 44 43 42 41 39 38 37 35 33 32 30 29 29
26 28 29 29 27 27 28 29 29 30 32 33 34 33 34 36 37 38 40 41 42 43 43 43 43 44 44 44 45 46 45 44 43 42 41 39 37 35 34 32 31 29 29 29
26 28 29 29 28 30 30 30 30 31 33 34 34 34 34 35 37 39 40 41 42 42 41 41 42 42 44 44 45 45 45 43 42 41 40 38 36 34 33 32 31 30 30 29
Wind_Direction
252 246 238 234 234 234 233 233 233 229 227 228 228 227 224 224 224 223 221 221 221 221 221 221 220 219 219 219 220 221 221 222 224 224 225 227 229 232 234 238 242 246 250 254
252 247 240 235 233 231 232 232 232 228 227 229 229 227 224 223 224 223 221 220 219 219 219 219 219 219 218 219 220 221 222 223 224 224 226 227 229 232 234 238 242 246 250 255
253 243 239 235 232 231 231 231 231 229 226 227 230 229 224 222 224 223 221 219 218 218 219 219 220 219 219 219 219 221 223 224 224 225 227 228 230 233 236 240 243 246 250 255
249 241 240 237 233 231 231 231 231 230 229 227 228 231 225 223 223 223 222 219 218 218 218 219 219 219 219 219 220 221 223 224 225 226 227 229 231 234 237 241 244 246 250 255
246 243 241 239 234 230 228 228 230 231 230 230 228 232 225 223 223 222 222 220 219 218 219 219 219 218 218 219 220 222 223 224 225 227 228 230 232 234 237 240 242 246 250 254
247 243 240 238 234 232 229 230 231 231 231 232 229 233 228 224 224 223 221 220 219 218 219 219 220 219 218 219 220 222 223 224 226 228 229 231 233 235 237 240 243 246 250 254
248 242 239 237 236 232 231 231 231 232 232 232 229 233 229 224 223 223 221 219 219 218 218 218 220 220 218 219 219 221 223 225 227 229 231 232 233 235 237 240 243 247 251 255
259 245 239 238 237 236 232 231 230 232 234 233 230 231 226 222 221 221 222 219 218 217 218 218 219 220 219 219 219 220 223 225 228 229 231 232 234 235 238 240 244 248 252 256
269 254 242 242 239 238 235 233 231 231 234 235 233 229 225 224 222 222 221 219 218 218 218 218 218 220 220 220 220 221 222 225 227 229 231 233 234 236 238 241 245 249 252 255
271 263 244 242 240 239 238 233 229 229 234 236 232 227 224 223 223 222 221 219 218 219 218 217 217 218 219 220 221 222 223 224 226 227 230 232 235 237 240 243 246 249 252 255
272 267 255 245 239 238 236 230 229 231 235 236 234 227 224 224 224 223 221 219 218 218 218 219 219 219 220 220 221 222 223 224 225 227 229 232 235 238 241 243 246 249 251 254
273 268 262 251 241 237 235 231 230 231 232 234 235 228 227 229 225 224 221 220 218 217 218 218 219 220 221 222 222 222 223 224 225 227 229 231 234 237 241 243 246 249 251 254
273 268 263 252 243 238 236 233 233 233 234 233 234 229 229 230 226 222 220 219 217 217 218 218 219 220 221 221 222 222 222 224 226 227 229 230 233 236 239 243 246 248 250 253
273 268 263 257 247 242 239 234 233 234 234 233 233 231 225 227 227 223 220 218 216 216 218 219 219 220 221 221 221 222 222 223 225 228 229 230 233 236 238 242 245 247 250 252
274 269 261 255 249 245 240 236 234 234 233 232 230 230 226 225 227 226 221 219 217 216 217 218 219 220 220 220 221 222 222 223 225 227 229 231 232 235 238 241 244 246 248 252
275 271 262 253 251 250 244 236 234 232 231 231 230 228 226 226 224 222 220 218 217 216 216 217 218 218 219 219 219 221 223 224 225 227 229 231 233 235 237 240 243 245 248 251
276 272 266 257 252 250 247 238 235 231 230 231 230 228 226 225 225 221 219 217 217 216 216 217 217 217 217 218 219 220 222 225 227 227 229 231 233 235 236 238 242 245 248 250
278 274 268 261 255 252 248 241 236 231 229 231 230 228 227 226 225 221 219 217 217 218 216 216 216 216 217 218 218 220 222 224 226 227 228 229 231 234 237 239 241 244 246 248
275 274 269 265 262 254 248 243 239 234 231 231 231 229 228 226 224 220 219 217 216 214 214 214 215 215 216 217 218 220 221 224 226 227 228 229 231 234 237 239 242 243 245 247
272 271 270 267 263 259 251 244 240 238 236 232 232 230 228 226 224 222 220 219 217 214 214 215 216 216 216 216 217 218 220 223 225 227 228 230 231 232 234 238 240 242 244 246
272 271 268 265 264 262 254 246 240 241 237 233 230 229 228 226 225 223 221 219 218 215 213 214 214 214 215 215 216 217 219 221 223 225 227 229 229 231 233 235 238 240 243 246
272 270 267 264 262 262 253 245 240 241 236 234 231 228 227 226 224 225 223 222 220 217 214 213 213 213 213 215 216 216 218 219 221 222 224 226 229 230 232 234 236 239 241 244
272 269 266 263 262 259 252 247 242 239 237 235 232 229 227 224 223 224 224 223 220 216 214 214 213 212 212 213 214 214 215 216 218 221 222 224 226 229 231 233 236 238 241 244
272 269 266 264 261 256 250 247 242 238 237 235 233 232 228 224 222 223 224 222 220 219 216 215 214 213 213 212 212 212 213 215 218 220 222 223 226 228 230 232 234 237 240 243
274 270 267 264 259 254 248 247 244 239 235 234 235 234 230 226 222 220 221 220 219 218 218 217 215 213 214 213 211 211 213 216 219 221 223 224 225 225 227 229 231 235 239 243
272 268 264 263 258 254 250 247 244 241 237 235 235 234 232 228 223 220 218 218 217 216 218 218 216 215 215 214 213 212 214 216 218 220 221 223 223 225 228 230 232 236 240 243
Height
5572 5576 5579 5583 5587 5592 5597 5602 5609 5618 5623 5627 5632 5640 5650 5657 5663 5672 5680 5689 5697 5706 5715 5721 5728 5735 5742 5749 5756 5762 5768 5773 5778 5783 5788 5792 5796 5799 5802 5805 5808 5810 5812 5813
5566 5569 5571 5573 5577 5582 5586 5592 5599 5606 5612 5615 5621 5628 5637 5645 5652 5661 5670 5679 5688 5697 5704 5712 5719 5727 5734 5741 5748 5754 5760 5766 5771 5776 5781 5785 5789 5792 5795 5798 5801 5804 5806 5807
5559 5563 5564 5566 5570 5574 5579 5584 5590 5596 5601 5605 5610 5616 5625 5635 5642 5650 5659 5669 5678 5687 5696 5704 5711 5718 5726 5733 5741 5747 5753 5759 5764 5769 5773 5778 5782 5785 5789 5792 5795 5797 5799 5800
5554 5556 5558 5560 5563 5567 5572 5579 5582 5587 5591 5595 5601 5604 5616 5624 5631 5641 5651 5660 5669 5678 5687 5695 5703 5710 5718 5726 5733 5739 5745 5751 5756 5761 5766 5771 5776 5780 5783 5786 5788 5790 5792 5794
5549 5551 5553 5555 5559 5561 5567 5571 5575 5578 5582 5586 5592 5595 5606 5614 5621 5632 5642 5652 5661 5670 5678 5686 5694 5703 5711 5717 5724 5730 5736 5742 5748 5753 5759 5764 5769 5772 5776 5778 5781 5783 5785 5787
5546 5547 5548 5551 5553 5556 5560 5564 5567 5570 5573 5577 5585 5588 5595 5607 5616 5626 5634 5643 5652 5660 5668 5677 5685 5693 5701 5708 5715 5721 5728 5734 5740 5745 5751 5756 5761 5764 5768 5771 5774 5776 5778 5780
5543 5544 5544 5546 5549 5552 5554 5558 5561 5564 5566 5571 5579 5580 5589 5602 5610 5617 5625 5633 5641 5649 5658 5666 5674 5682 5691 5699 5706 5713 5720 5726 5732 5738 5743 5748 5753 5756 5760 5764 5767 5769 5771 5773
5539 5541 5541 5542 5543 5546 5549 5552 5556 5560 5563 5567 5571 5574 5586 5594 5600 5606 5614 5622 5630 5639 5648 5657 5666 5674 5682 5690 5697 5704 5711 5718 5724 5730 5735 5740 5744 5748 5752 5756 5759 5761 5764 5765
5534 5537 5537 5538 5539 5541 5543 5546 5551 5555 5557 5560 5564 5571 5578 5584 5591 5598 5605 5613 5621 5630 5639 5648 5657 5664 5672 5681 5689 5696 5703 5710 5716 5722 5727 5732 5736 5740 5744 5747 5750 5753 5755 5757
5530 5531 5533 5533 5534 5536 5538 5542 5545 5548 5550 5554 5559 5565 5572 5578 5584 5590 5597 5605 5614 5622 5630 5639 5647 5655 5663 5672 5680 5687 5694 5701 5707 5713 5718 5723 5728 5732 5736 5739 5742 5745 5747 5749
5525 5526 5528 5528 5529 5531 5534 5537 5539 5542 5546 5550 5554 5562 5567 5572 5578 5583 5589 5596 5605 5613 5622 5630 5639 5647 5654 5662 5670 5677 5685 5691 5698 5704 5710 5715 5720 5724 5727 5731 5734 5736 5738 5740
5521 5521 5521 5523 5525 5526 5528 5531 5534 5537 5541 5544 5548 5557 5561 5566 5571 5576 5581 5588 5596 5604 5613 5622 5630 5637 5645 5653 5660 5668 5675 5682 5689 5695 5701 5706 5711 5715 5719 5722 5726 5728 5730 5732
5516 5516 5516 5518 5521 5521 5522 5525 5527 5530 5534 5537 5542 5552 5556 5559 5563 5568 5574 5581 5587 5596 5604 5613 5621 5628 5636 5644 5651 5659 5666 5673 5680 5686 5692 5697 5702 5706 5710 5714 5717 5720 5722 5724
5511 5511 5512 5512 5513 5514 5516 5519 5521 5523 5526 5531 5537 5543 5549 5552 5556 5561 5567 5573 5580 5588 5596 5604 5612 5619 5627 5635 5642 5650 5657 5663 5670 5676 5682 5688 5693 5698 5702 5705 5708 5711 5713 5715
5505 5505 5505 5505 5506 5507 5509 5512 5515 5517 5521 5525 5531 5536 5542 5546 5550 5555 5560 5565 5573 5580 5588 5595 5602 5610 5618 5625 5633 5640 5647 5653 5660 5666 5672 5678 5683 5688 5692 5696 5699 5702 5704 5706
5499 5499 5499 5499 5500 5500 5502 5505 5507 5510 5515 5518 5522 5528 5534 5538 5542 5547 5552 5558 5565 5572 5579 5586 5594 5601 5609 5616 5624 5631 5638 5644 5650 5657 5663 5668 5673 5678 5683 5687 5690 5693 5695 5697
5494 5493 5492 5493 5493 5493 5496 5499 5501 5504 5508 5511 5515 5522 5525 5529 5534 5539 5544 5551 5557 5564 5571 5578 5585 5592 5600 5607 5615 5622 5629 5635 5641 5647 5653 5659 5664 5669 5673 5677 5680 5684 5686 5689
5489 5487 5486 5486 5488 5488 5493 5493 5494 5497 5501 5504 5508 5512 5516 5520 5525 5531 5536 5542 5549 5555 5562 5569 5576 5583 5590 5598 5605 5612 5619 5625 5632 5638 5644 5649 5655 5660 5664 5668 5671 5674 5677 5679
5482 5481 5480 5479 5479 5481 5485 5486 5487 5489 5493 5495 5499 5503 5507 5512 5517 5523 5528 5534 5540 5547 5553 5560 5567 5574 5581 5588 5595 5603 5610 5616 5623 5629 5635 5640 5645 5650 5655 5658 5662 5665 5668 5670
5475 5474 5474 5473 5472 5473 5479 5480 5480 5482 5485 5488 5491 5495 5499 5503 5509 5515 5519 5525 5531 5537 5544 5551 5558 5565 5572 5579 5586 5593 5601 5607 5614 5620 5626 5631 5636 5641 5646 5649 5653 5656 5659 5662
5468 5467 5466 5465 5464 5466 5471 5471 5472 5475 5478 5479 5482 5486 5490 5494 5500 5506 5511 5517 5523 5528 5535 5542 5549 5556 5563 5569 5577 5584 5592 5599 5605 5611 5616 5622 5627 5632 5636 5640 5644 5647 5650 5653
5461 5459 5459 5458 5458 5462 5463 5463 5464 5467 5469 5471 5474 5477 5481 5486 5491 5496 5502 5508 5514 5520 5526 5533 5540 5547 5554 5561 5568 5575 5583 5590 5596 5602 5608 5614 5619 5624 5628 5632 5636 5639 5642 5645
5453 5452 5451 5451 5453 5454 5453 5454 5455 5457 5460 5462 5465 5469 5473 5478 5483 5488 5494 5499 5505 5512 5518 5525 5532 5539 5546 5552 5559 5567 5574 5581 5587 5593 5599 5605 5610 5615 5620 5624 5628 5632 5635 5638
5445 5443 5442 5442 5444 5445 5445 5445 5447 5449 5451 5454 5457 5461 5464 5469 5474 5479 5485 5491 5497 5503 5510 5517 5523 5530 5537 5544 5551 5558 5565 5572 5578 5585 5591 5597 5602 5607 5612 5617 5621 5624 5627 5630
5436 5434 5433 5432 5434 5434 5436 5437 5438 5440 5443 5446 5449 5452 5456 5461 5466 5471 5477 5482 5488 5494 5501 5508 5515 5522 5529 5535 5543 5550 5557 5564 5571 5577 5583 5589 5595 5600 5605 5609 5613 5617 5620 5623
5428 5425 5423 5424 5425 5425 5427 5428 5430 5431 5434 5437 5441 5444 5448 5452 5457 5462 5468 5474 5480 5486 5493 5500 5507 5514 5521 5528 5535 5542 5549 5557 5563 5569 5576 5581 5587 5592 5597 5601 5605 5608 5612 5615